User: anonymous
Location: Unspecified
(0.0000°N, 0.0000°E)
Time: 17:55:03
(UTC+00:00)
Language:

AUBIESAT-1 - Orbit

View from above orbital plane
View from above orbital plane
View from above satellite
View from above satellite

Ground track
Ground track

The orbit data is extracted from the following two-line orbital elements,

1 37854U 11061E   14203.70863036  .00000621  00000-0  50646-4 0  8464
2 37854 101.7157 252.2901 0212987 310.9837 174.2595 14.91154386148000
Epoch (UTC): 22 July 2014 17:00:25
Eccentricity: 0.0212987
inclination: 101.7157°
perigee height: 446 km
apogee height: 743 km
right ascension of ascending node: 252.2901°
argument of perigee: 310.9837°
revolutions per day: 14.91154386
mean anomaly at epoch: 174.2595°
orbit number at epoch: 14800

The dashed part of the orbit path shows where the satellite is in the earth's shadow,  

DLR